Location: *
(49.7115°N, 15.0136°E)
Time: 05:04:59
(UTC+00:00)

STARLINK-64 - Pass Details

Date: 27 February 2020
Orbit: 450 x 460 km, 53.0° (Epoch: 29 March)

Event Time Altitude Azimuth Distance (km) Brightness Sun altitude
Rises 17:43:37 0° 280° (W) 2,474 8.9 -11.3°
Reaches altitude 10° 17:45:48 10° 286° (WNW) 1,602 7.3 -11.7°
Maximum altitude 17:49:19 48° 2° (N) 607 3.8 -12.3°
Enters shadow 17:51:34 20° 71° (ENE) 1,131 4.7 -12.6°
